GLD1028 SBGO-SBPS

Flight info

Callsign GLD1028
Flight time 1h 37m
Altitude 33000
Route DALS1A DALSA DCT MOLTI DCT UBNED DCT UTLON DCT EGORU DCT
Aircraft B738/M-SDFGIRY/S

Departure

Time 2026-05-08 15:10
Airport Santa Genoveva International Airport (SBGO)

Arrival

Time 2026-05-08 16:47
Airport Porto Seguro International Airport (SBPS)
Time Latitude Longitude Altitude Speed Heading
2026-05-08 14:48 -16.63007 -49.21512 2461 ft 0 kts 57°
2026-05-08 15:01 -16.63008 -49.21514 2461 ft 2 kts 56°
2026-05-08 15:01 -16.63015 -49.21525 2463 ft 2 kts 56°
2026-05-08 15:01 -16.63022 -49.21536 2465 ft 2 kts 56°
2026-05-08 15:01 -16.63029 -49.21547 2462 ft 2 kts 56°
2026-05-08 15:02 -16.63036 -49.21558 2461 ft 2 kts 56°
2026-05-08 15:02 -16.63042 -49.21565 2461 ft 1 kts 24°
2026-05-08 15:02 -16.63047 -49.21568 2465 ft 0 kts 332°
2026-05-08 15:03 -16.63029 -49.21580 2467 ft 6 kts 329°
2026-05-08 15:03 -16.62996 -49.21600 2464 ft 6 kts 329°
2026-05-08 15:04 -16.62960 -49.21616 2462 ft 6 kts 339°
2026-05-08 15:04 -16.62928 -49.21636 2461 ft 5 kts 312°
2026-05-08 15:04 -16.62920 -49.21676 2464 ft 7 kts 265°
2026-05-08 15:04 -16.62933 -49.21744 2459 ft 12 kts 257°
2026-05-08 15:05 -16.62954 -49.21837 2452 ft 15 kts 257°
2026-05-08 15:05 -16.62979 -49.21951 2447 ft 17 kts 257°
2026-05-08 15:05 -16.62993 -49.22074 2449 ft 17 kts 275°
2026-05-08 15:05 -16.62959 -49.22190 2452 ft 17 kts 298°
2026-05-08 15:06 -16.62901 -49.22292 2452 ft 16 kts 301°
2026-05-08 15:06 -16.62845 -49.22389 2457 ft 15 kts 301°
2026-05-08 15:06 -16.62793 -49.22485 2462 ft 15 kts 296°
2026-05-08 15:06 -16.62748 -49.22578 2460 ft 14 kts 297°
2026-05-08 15:07 -16.62700 -49.22665 2458 ft 13 kts 303°
2026-05-08 15:07 -16.62649 -49.22745 2465 ft 13 kts 304°
2026-05-08 15:07 -16.62603 -49.22824 2460 ft 13 kts 298°
2026-05-08 15:07 -16.62577 -49.22907 2455 ft 12 kts 251°
2026-05-08 15:08 -16.62611 -49.22938 2454 ft 0 kts 211°
2026-05-08 15:08 -16.62642 -49.22957 2456 ft 8 kts 211°
2026-05-08 15:08 -16.62701 -49.22976 2461 ft 10 kts 160°
2026-05-08 15:09 -16.62719 -49.22956 2454 ft 0 kts 122°
2026-05-08 15:09 -16.62781 -49.22846 2462 ft 52 kts 120°
2026-05-08 15:09 -16.63096 -49.22285 2457 ft 126 kts 120°
2026-05-08 15:09 -16.63643 -49.21307 2527 ft 178 kts 119°
2026-05-08 15:10 -16.64287 -49.20207 3430 ft 178 kts 118°
2026-05-08 15:10 -16.64922 -49.19093 4338 ft 178 kts 116°
2026-05-08 15:10 -16.65578 -49.17906 4841 ft 206 kts 115°
2026-05-08 15:10 -16.66345 -49.16501 5055 ft 234 kts 114°
2026-05-08 15:11 -16.66736 -49.14811 5249 ft 249 kts 79°
2026-05-08 15:11 -16.66043 -49.13173 5599 ft 262 kts 44°
2026-05-08 15:11 -16.64585 -49.12080 6471 ft 259 kts 36°
2026-05-08 15:11 -16.63538 -49.10533 7156 ft 272 kts 72°
2026-05-08 15:12 -16.63228 -49.08572 7758 ft 275 kts 77°
2026-05-08 15:12 -16.62813 -49.06605 8073 ft 279 kts 72°
2026-05-08 15:12 -16.62265 -49.04675 8074 ft 279 kts 69°
2026-05-08 15:12 -16.61652 -49.02746 8091 ft 281 kts 69°
2026-05-08 15:13 -16.61019 -49.00816 8210 ft 283 kts 68°
2026-05-08 15:13 -16.60370 -48.98876 8814 ft 286 kts 68°
2026-05-08 15:13 -16.59713 -48.96917 9625 ft 286 kts 68°
2026-05-08 15:13 -16.59050 -48.94942 10312 ft 292 kts 68°
2026-05-08 15:14 -16.58354 -48.92875 10568 ft 314 kts 68°
2026-05-08 15:14 -16.57604 -48.90648 10756 ft 337 kts 69°
2026-05-08 15:14 -16.56812 -48.88288 11137 ft 351 kts 69°
2026-05-08 15:14 -16.56004 -48.85873 11801 ft 354 kts 69°
2026-05-08 15:15 -16.55194 -48.83456 12579 ft 353 kts 70°
2026-05-08 15:15 -16.54386 -48.81048 13347 ft 353 kts 70°
2026-05-08 15:15 -16.53655 -48.78607 14035 ft 354 kts 77°
2026-05-08 15:15 -16.53313 -48.76047 14534 ft 360 kts 83°
2026-05-08 15:16 -16.53087 -48.73433 15048 ft 364 kts 84°
2026-05-08 15:16 -16.52885 -48.70791 15564 ft 368 kts 84°
2026-05-08 15:16 -16.52676 -48.68108 16026 ft 373 kts 84°
2026-05-08 15:16 -16.52458 -48.65438 16543 ft 376 kts 84°
2026-05-08 15:17 -16.52220 -48.62675 17088 ft 379 kts 84°
2026-05-08 15:17 -16.51978 -48.59961 17577 ft 383 kts 84°
2026-05-08 15:17 -16.51724 -48.57182 18052 ft 387 kts 84°
2026-05-08 15:17 -16.51462 -48.54368 18498 ft 391 kts 84°
2026-05-08 15:18 -16.51196 -48.51529 18918 ft 394 kts 84°
2026-05-08 15:18 -16.50927 -48.48675 19349 ft 397 kts 84°
2026-05-08 15:18 -16.50656 -48.45810 19785 ft 399 kts 84°
2026-05-08 15:18 -16.50381 -48.42913 20202 ft 403 kts 84°
2026-05-08 15:19 -16.50105 -48.40005 20607 ft 405 kts 84°
2026-05-08 15:19 -16.49826 -48.37069 21035 ft 408 kts 84°
2026-05-08 15:19 -16.49546 -48.34125 21435 ft 411 kts 84°
2026-05-08 15:19 -16.49262 -48.31148 21850 ft 413 kts 84°
2026-05-08 15:20 -16.48978 -48.28167 22248 ft 416 kts 84°
2026-05-08 15:20 -16.48690 -48.25157 22626 ft 419 kts 84°
2026-05-08 15:20 -16.48401 -48.22132 23014 ft 421 kts 84°
2026-05-08 15:20 -16.48109 -48.19085 23396 ft 424 kts 84°
2026-05-08 15:21 -16.47815 -48.16024 23768 ft 425 kts 84°
2026-05-08 15:21 -16.47519 -48.12948 24069 ft 428 kts 84°
2026-05-08 15:21 -16.47221 -48.09850 24356 ft 431 kts 84°
2026-05-08 15:21 -16.46925 -48.06778 24668 ft 433 kts 84°
2026-05-08 15:22 -16.46618 -48.03603 24934 ft 436 kts 84°
2026-05-08 15:22 -16.46317 -48.00492 25253 ft 438 kts 84°
2026-05-08 15:22 -16.46010 -47.97329 25557 ft 440 kts 84°
2026-05-08 15:22 -16.45701 -47.94143 25840 ft 443 kts 84°
2026-05-08 15:23 -16.45391 -47.90949 26156 ft 444 kts 84°
2026-05-08 15:23 -16.45077 -47.87730 26392 ft 448 kts 84°
2026-05-08 15:23 -16.44762 -47.84494 26713 ft 450 kts 84°
2026-05-08 15:23 -16.44444 -47.81242 26947 ft 453 kts 84°
2026-05-08 15:24 -16.44124 -47.77967 27250 ft 455 kts 84°
2026-05-08 15:24 -16.43802 -47.74689 27563 ft 456 kts 84°
2026-05-08 15:24 -16.43477 -47.71378 27788 ft 460 kts 84°
2026-05-08 15:24 -16.43152 -47.68071 28094 ft 461 kts 84°
2026-05-08 15:25 -16.42823 -47.64729 28297 ft 465 kts 84°
2026-05-08 15:25 -16.42493 -47.61380 28634 ft 465 kts 84°
2026-05-08 15:25 -16.42161 -47.58022 28862 ft 468 kts 84°
2026-05-08 15:25 -16.41832 -47.54692 29141 ft 469 kts 84°
2026-05-08 15:26 -16.41492 -47.51267 29404 ft 470 kts 84°
2026-05-08 15:26 -16.41159 -47.47915 29627 ft 473 kts 84°
2026-05-08 15:26 -16.40820 -47.44506 29880 ft 474 kts 84°
2026-05-08 15:26 -16.40475 -47.41044 30097 ft 476 kts 84°
2026-05-08 15:27 -16.40137 -47.37654 30333 ft 477 kts 84°
2026-05-08 15:27 -16.39794 -47.34216 30598 ft 477 kts 84°
2026-05-08 15:27 -16.39450 -47.30781 30883 ft 477 kts 84°
2026-05-08 15:27 -16.39105 -47.27342 31147 ft 477 kts 84°
2026-05-08 15:28 -16.38801 -47.23901 31396 ft 477 kts 88°
2026-05-08 15:28 -16.38829 -47.20450 31647 ft 477 kts 93°
2026-05-08 15:28 -16.39007 -47.17013 31928 ft 476 kts 94°
2026-05-08 15:28 -16.39227 -47.13565 32212 ft 476 kts 95°
2026-05-08 15:29 -16.39451 -47.10135 32476 ft 476 kts 95°
2026-05-08 15:29 -16.39666 -47.06696 32730 ft 476 kts 94°
2026-05-08 15:29 -16.39867 -47.03254 32986 ft 476 kts 94°
2026-05-08 15:29 -16.40055 -46.99818 33266 ft 476 kts 94°
2026-05-08 15:30 -16.40234 -46.96376 33510 ft 476 kts 94°
2026-05-08 15:30 -16.40409 -46.92930 33765 ft 476 kts 94°
2026-05-08 15:30 -16.40580 -46.89488 34035 ft 475 kts 94°
2026-05-08 15:30 -16.40750 -46.86051 34254 ft 475 kts 94°
2026-05-08 15:31 -16.40921 -46.82610 34432 ft 476 kts 94°
2026-05-08 15:31 -16.41092 -46.79161 34614 ft 477 kts 94°
2026-05-08 15:31 -16.41262 -46.75710 34818 ft 477 kts 94°
2026-05-08 15:31 -16.41433 -46.72256 35007 ft 477 kts 94°
2026-05-08 15:32 -16.41773 -46.65354 35054 ft 481 kts 94°
2026-05-08 15:32 -16.42113 -46.58371 35041 ft 477 kts 94°
2026-05-08 15:33 -16.42445 -46.51532 35047 ft 474 kts 94°
2026-05-08 15:33 -16.42774 -46.44687 35054 ft 472 kts 94°
2026-05-08 15:34 -16.43101 -46.37866 35057 ft 471 kts 94°
2026-05-08 15:34 -16.43426 -46.31051 35071 ft 471 kts 94°
2026-05-08 15:35 -16.43746 -46.24282 35056 ft 471 kts 94°
2026-05-08 15:35 -16.44066 -46.17442 35061 ft 473 kts 94°
2026-05-08 15:36 -16.44334 -46.11696 35058 ft 474 kts 95°
2026-05-08 15:36 -16.44704 -46.03703 35063 ft 476 kts 95°
2026-05-08 15:37 -16.45021 -45.96798 35070 ft 478 kts 95°
2026-05-08 15:37 -16.45337 -45.89875 35062 ft 479 kts 95°
2026-05-08 15:38 -16.45651 -45.82940 35048 ft 479 kts 95°
2026-05-08 15:38 -16.45962 -45.76004 35046 ft 479 kts 95°
2026-05-08 15:39 -16.46271 -45.69080 35044 ft 478 kts 95°
2026-05-08 15:39 -16.46577 -45.62160 35052 ft 477 kts 95°
2026-05-08 15:40 -16.46878 -45.55306 35045 ft 476 kts 95°
2026-05-08 15:40 -16.47179 -45.48414 35043 ft 475 kts 95°
2026-05-08 15:41 -16.47477 -45.41539 35040 ft 474 kts 95°
2026-05-08 15:41 -16.47771 -45.34682 35043 ft 473 kts 95°
2026-05-08 15:42 -16.48063 -45.27840 35037 ft 472 kts 95°
2026-05-08 15:42 -16.48352 -45.21006 35034 ft 472 kts 95°
2026-05-08 15:43 -16.48639 -45.14180 35037 ft 471 kts 95°
2026-05-08 15:43 -16.48924 -45.07346 35036 ft 471 kts 95°
2026-05-08 15:44 -16.49204 -45.00565 35035 ft 472 kts 95°
2026-05-08 15:44 -16.49484 -44.93740 35036 ft 472 kts 95°
2026-05-08 15:45 -16.49763 -44.86891 35033 ft 473 kts 95°
2026-05-08 15:45 -16.50039 -44.80042 35039 ft 473 kts 95°
2026-05-08 15:46 -16.50267 -44.74342 35040 ft 474 kts 95°
2026-05-08 15:46 -16.50541 -44.67468 35037 ft 474 kts 95°
2026-05-08 15:47 -16.50811 -44.60600 35048 ft 474 kts 95°
2026-05-08 15:47 -16.51080 -44.53730 35047 ft 474 kts 95°
2026-05-08 15:48 -16.51479 -44.43421 35051 ft 474 kts 95°
2026-05-08 15:49 -16.51741 -44.36558 35054 ft 474 kts 95°
2026-05-08 15:49 -16.52001 -44.29711 35058 ft 473 kts 95°
2026-05-08 15:50 -16.52257 -44.22902 35060 ft 472 kts 95°
2026-05-08 15:50 -16.52512 -44.16066 35063 ft 472 kts 95°
2026-05-08 15:51 -16.52765 -44.09238 35056 ft 471 kts 95°
2026-05-08 15:51 -16.53015 -44.02422 35103 ft 470 kts 95°
2026-05-08 15:52 -16.53262 -43.95614 35114 ft 470 kts 95°
2026-05-08 15:52 -16.53507 -43.88805 35125 ft 470 kts 95°
2026-05-08 15:53 -16.53748 -43.82040 35137 ft 470 kts 95°
2026-05-08 15:53 -16.53990 -43.75199 35127 ft 470 kts 95°
2026-05-08 15:54 -16.54227 -43.68435 35114 ft 470 kts 95°
2026-05-08 15:54 -16.54463 -43.61637 35098 ft 469 kts 95°
2026-05-08 15:55 -16.54697 -43.54840 35083 ft 469 kts 95°
2026-05-08 15:55 -16.55043 -43.44643 35071 ft 469 kts 95°
2026-05-08 15:56 -16.55272 -43.37832 35071 ft 470 kts 95°
2026-05-08 15:56 -16.55499 -43.31028 35075 ft 469 kts 95°
2026-05-08 15:57 -16.55721 -43.24266 35078 ft 469 kts 95°
2026-05-08 15:57 -16.55942 -43.17464 35078 ft 469 kts 95°
2026-05-08 15:58 -16.56162 -43.10663 35078 ft 470 kts 95°
2026-05-08 15:58 -16.56379 -43.03860 35081 ft 469 kts 95°
2026-05-08 15:59 -16.56594 -42.97057 35075 ft 469 kts 95°
2026-05-08 15:59 -16.56807 -42.90256 35081 ft 469 kts 95°
2026-05-08 16:00 -16.57018 -42.83455 35080 ft 470 kts 95°
2026-05-08 16:00 -16.57226 -42.76655 35081 ft 469 kts 95°
2026-05-08 16:01 -16.57432 -42.69859 35080 ft 469 kts 95°
2026-05-08 16:01 -16.57636 -42.63062 35073 ft 469 kts 95°
2026-05-08 16:02 -16.57838 -42.56266 35069 ft 469 kts 94°
2026-05-08 16:02 -16.58037 -42.49476 35080 ft 468 kts 94°
2026-05-08 16:03 -16.58234 -42.42692 35074 ft 468 kts 94°
2026-05-08 16:03 -16.58680 -42.35936 35074 ft 466 kts 99°
2026-05-08 16:04 -16.59506 -42.29245 35072 ft 466 kts 100°
2026-05-08 16:04 -16.60344 -42.22592 35069 ft 466 kts 100°
2026-05-08 16:05 -16.61142 -42.15878 35073 ft 466 kts 99°
2026-05-08 16:05 -16.61915 -42.09164 35063 ft 466 kts 99°
2026-05-08 16:06 -16.62681 -42.02458 35066 ft 466 kts 99°
2026-05-08 16:06 -16.63446 -41.95748 35077 ft 466 kts 99°
2026-05-08 16:07 -16.64210 -41.89045 35064 ft 465 kts 99°
2026-05-08 16:07 -16.64971 -41.82346 35066 ft 465 kts 99°
2026-05-08 16:08 -16.65729 -41.75654 35076 ft 464 kts 99°
2026-05-08 16:08 -16.66484 -41.68971 35081 ft 464 kts 99°
2026-05-08 16:09 -16.67110 -41.63417 35068 ft 464 kts 99°
2026-05-08 16:09 -16.67987 -41.55612 35083 ft 463 kts 99°
2026-05-08 16:10 -16.68734 -41.48937 35081 ft 463 kts 100°
2026-05-08 16:10 -16.69475 -41.42316 35079 ft 462 kts 100°
2026-05-08 16:11 -16.70876 -41.35829 35083 ft 457 kts 110°
2026-05-08 16:11 -16.72800 -41.29472 35092 ft 456 kts 111°
2026-05-08 16:12 -16.74686 -41.23195 35085 ft 457 kts 111°
2026-05-08 16:12 -16.76540 -41.16841 35090 ft 458 kts 110°
2026-05-08 16:13 -16.78376 -41.10470 35086 ft 459 kts 110°
2026-05-08 16:13 -16.80196 -41.04131 35065 ft 449 kts 111°
2026-05-08 16:14 -16.81088 -41.01021 34739 ft 445 kts 111°
2026-05-08 16:14 -16.81969 -40.97952 34436 ft 439 kts 111°
2026-05-08 16:14 -16.82842 -40.94912 34056 ft 436 kts 111°
2026-05-08 16:14 -16.83710 -40.91895 33656 ft 433 kts 111°
2026-05-08 16:15 -16.84571 -40.88898 33226 ft 429 kts 111°
2026-05-08 16:15 -16.85424 -40.85924 32837 ft 426 kts 111°
2026-05-08 16:15 -16.86270 -40.82974 32451 ft 422 kts 111°
2026-05-08 16:15 -16.87108 -40.80049 32073 ft 419 kts 111°
2026-05-08 16:16 -16.87941 -40.77140 31694 ft 417 kts 111°
2026-05-08 16:16 -16.88766 -40.74258 31324 ft 414 kts 111°
2026-05-08 16:16 -16.89589 -40.71384 30949 ft 411 kts 111°
2026-05-08 16:16 -16.90403 -40.68535 30592 ft 409 kts 111°
2026-05-08 16:17 -16.91268 -40.65717 30214 ft 404 kts 116°
2026-05-08 16:17 -16.92037 -40.63963 29947 ft 399 kts 122°
2026-05-08 16:17 -16.94066 -40.60801 29541 ft 387 kts 131°
2026-05-08 16:17 -16.95706 -40.58585 29158 ft 383 kts 131°
2026-05-08 16:18 -16.97340 -40.56404 28781 ft 380 kts 131°
2026-05-08 16:18 -16.98961 -40.54237 28403 ft 377 kts 131°
2026-05-08 16:18 -17.00563 -40.52083 28033 ft 374 kts 130°
2026-05-08 16:18 -17.02150 -40.49939 27667 ft 371 kts 130°
2026-05-08 16:19 -17.03719 -40.47810 27309 ft 369 kts 130°
2026-05-08 16:19 -17.05276 -40.45691 26953 ft 367 kts 130°
2026-05-08 16:19 -17.06825 -40.43581 26596 ft 364 kts 129°
2026-05-08 16:19 -17.08360 -40.41486 26234 ft 362 kts 129°
2026-05-08 16:20 -17.09886 -40.39404 25883 ft 360 kts 129°
2026-05-08 16:20 -17.11402 -40.37334 25534 ft 358 kts 129°
2026-05-08 16:20 -17.12910 -40.35274 25183 ft 356 kts 129°
2026-05-08 16:20 -17.14414 -40.33219 24837 ft 354 kts 129°
2026-05-08 16:21 -17.15907 -40.31180 24471 ft 353 kts 128°
2026-05-08 16:21 -17.17395 -40.29144 24131 ft 352 kts 128°
2026-05-08 16:21 -17.18879 -40.27116 23769 ft 351 kts 128°
2026-05-08 16:21 -17.20355 -40.25097 23395 ft 349 kts 128°
2026-05-08 16:22 -17.21807 -40.23109 23010 ft 347 kts 128°
2026-05-08 16:22 -17.23267 -40.21110 22647 ft 345 kts 127°
2026-05-08 16:22 -17.24718 -40.19123 22294 ft 342 kts 127°
2026-05-08 16:22 -17.26159 -40.17151 21952 ft 340 kts 127°
2026-05-08 16:23 -17.27589 -40.15191 21610 ft 338 kts 127°
2026-05-08 16:23 -17.29010 -40.13243 21279 ft 335 kts 127°
2026-05-08 16:23 -17.30419 -40.11312 20928 ft 334 kts 127°
2026-05-08 16:23 -17.31824 -40.09384 20590 ft 332 kts 127°
2026-05-08 16:24 -17.33223 -40.07465 20250 ft 331 kts 127°
2026-05-08 16:24 -17.34617 -40.05552 19920 ft 329 kts 127°
2026-05-08 16:24 -17.36005 -40.03647 19601 ft 328 kts 126°
2026-05-08 16:24 -17.37384 -40.01755 19274 ft 326 kts 126°
2026-05-08 16:25 -17.38757 -39.99869 18955 ft 325 kts 126°
2026-05-08 16:25 -17.39884 -39.97877 18626 ft 322 kts 108°
2026-05-08 16:25 -17.40203 -39.95554 18329 ft 319 kts 86°
2026-05-08 16:25 -17.39718 -39.93334 18011 ft 318 kts 66°
2026-05-08 16:26 -17.38533 -39.91395 17766 ft 317 kts 49°
2026-05-08 16:26 -17.36810 -39.89958 17513 ft 318 kts 32°
2026-05-08 16:26 -17.34872 -39.88854 17278 ft 319 kts 29°
2026-05-08 16:26 -17.32886 -39.87799 17032 ft 320 kts 28°
2026-05-08 16:27 -17.30895 -39.86754 16786 ft 321 kts 28°
2026-05-08 16:27 -17.28907 -39.85705 16542 ft 319 kts 28°
2026-05-08 16:27 -17.26930 -39.84654 16290 ft 318 kts 28°
2026-05-08 16:27 -17.24966 -39.83603 16062 ft 315 kts 28°
2026-05-08 16:28 -17.23027 -39.82561 15779 ft 312 kts 28°
2026-05-08 16:28 -17.21103 -39.81524 15472 ft 310 kts 28°
2026-05-08 16:28 -17.19192 -39.80492 15165 ft 308 kts 27°
2026-05-08 16:28 -17.17289 -39.79465 14860 ft 307 kts 27°
2026-05-08 16:29 -17.15403 -39.78446 14553 ft 305 kts 27°
2026-05-08 16:29 -17.13519 -39.77428 14250 ft 303 kts 27°
2026-05-08 16:29 -17.11648 -39.76417 13952 ft 302 kts 27°
2026-05-08 16:29 -17.09791 -39.75414 13619 ft 300 kts 27°
2026-05-08 16:30 -17.07941 -39.74416 13269 ft 296 kts 27°
2026-05-08 16:30 -17.06122 -39.73434 12964 ft 293 kts 27°
2026-05-08 16:30 -17.04317 -39.72460 12662 ft 291 kts 27°
2026-05-08 16:30 -17.02529 -39.71495 12425 ft 287 kts 28°
2026-05-08 16:31 -17.00810 -39.70472 12241 ft 281 kts 31°
2026-05-08 16:31 -16.99137 -39.69418 11956 ft 280 kts 31°
2026-05-08 16:31 -16.97481 -39.68362 11673 ft 279 kts 32°
2026-05-08 16:31 -16.95847 -39.67323 11387 ft 278 kts 32°
2026-05-08 16:32 -16.94198 -39.66278 11103 ft 277 kts 32°
2026-05-08 16:32 -16.92553 -39.65239 10811 ft 276 kts 32°
2026-05-08 16:32 -16.90910 -39.64205 10526 ft 275 kts 32°
2026-05-08 16:32 -16.89277 -39.63177 10296 ft 272 kts 32°
2026-05-08 16:33 -16.87685 -39.62177 10155 ft 261 kts 32°
2026-05-08 16:33 -16.86166 -39.61223 9968 ft 251 kts 32°
2026-05-08 16:33 -16.84689 -39.60296 9701 ft 247 kts 33°
2026-05-08 16:33 -16.83212 -39.59368 9453 ft 246 kts 33°
2026-05-08 16:34 -16.81765 -39.58460 9205 ft 240 kts 33°
2026-05-08 16:34 -16.80352 -39.57573 8927 ft 234 kts 33°
2026-05-08 16:34 -16.78987 -39.56717 8786 ft 222 kts 33°
2026-05-08 16:34 -16.77696 -39.55908 8676 ft 210 kts 33°
2026-05-08 16:35 -16.76461 -39.55134 8589 ft 206 kts 33°
2026-05-08 16:35 -16.75235 -39.54366 8511 ft 206 kts 33°
2026-05-08 16:35 -16.73998 -39.53588 8418 ft 209 kts 34°
2026-05-08 16:35 -16.73204 -39.53014 8256 ft 211 kts 38°
2026-05-08 16:36 -16.72033 -39.52089 8059 ft 211 kts 39°
2026-05-08 16:36 -16.70874 -39.51161 7826 ft 208 kts 39°
2026-05-08 16:36 -16.69735 -39.50251 7610 ft 204 kts 39°
2026-05-08 16:36 -16.68615 -39.49357 7399 ft 202 kts 39°
2026-05-08 16:37 -16.67498 -39.48468 7191 ft 202 kts 39°
2026-05-08 16:37 -16.66379 -39.47578 6972 ft 202 kts 39°
2026-05-08 16:37 -16.65258 -39.46689 6757 ft 202 kts 39°
2026-05-08 16:37 -16.64144 -39.45806 6559 ft 200 kts 39°
2026-05-08 16:38 -16.63045 -39.44935 6329 ft 197 kts 39°
2026-05-08 16:38 -16.61964 -39.44080 6102 ft 194 kts 39°
2026-05-08 16:38 -16.60888 -39.43228 5885 ft 194 kts 39°
2026-05-08 16:38 -16.59817 -39.42381 5665 ft 193 kts 39°
2026-05-08 16:39 -16.58756 -39.41542 5460 ft 191 kts 39°
2026-05-08 16:39 -16.57711 -39.40715 5242 ft 191 kts 39°
2026-05-08 16:39 -16.56663 -39.39887 5130 ft 187 kts 39°
2026-05-08 16:39 -16.55591 -39.39040 4929 ft 194 kts 39°
2026-05-08 16:40 -16.54531 -39.38202 4729 ft 193 kts 39°
2026-05-08 16:40 -16.53476 -39.37370 4511 ft 188 kts 39°
2026-05-08 16:40 -16.52447 -39.36559 4287 ft 183 kts 39°
2026-05-08 16:40 -16.51472 -39.35731 4086 ft 181 kts 51°
2026-05-08 16:41 -16.50987 -39.34541 3883 ft 181 kts 76°
2026-05-08 16:41 -16.50636 -39.33244 3526 ft 188 kts 74°
2026-05-08 16:41 -16.50287 -39.31970 3232 ft 177 kts 75°
2026-05-08 16:42 -16.49654 -39.29638 2762 ft 160 kts 75°
2026-05-08 16:42 -16.49353 -39.28520 2596 ft 161 kts 75°
2026-05-08 16:42 -16.49040 -39.27358 2421 ft 173 kts 74°
2026-05-08 16:42 -16.48710 -39.26117 2245 ft 182 kts 76°
2026-05-08 16:43 -16.48365 -39.24835 2024 ft 183 kts 76°
2026-05-08 16:43 -16.48035 -39.23604 1898 ft 169 kts 76°
2026-05-08 16:43 -16.47743 -39.22508 1865 ft 150 kts 76°
2026-05-08 16:43 -16.47462 -39.21461 1903 ft 152 kts 76°
2026-05-08 16:44 -16.47173 -39.20392 1915 ft 154 kts 76°
2026-05-08 16:44 -16.46885 -39.19325 1906 ft 150 kts 76°
2026-05-08 16:44 -16.46608 -39.18300 1901 ft 144 kts 77°
2026-05-08 16:44 -16.46332 -39.17279 1837 ft 150 kts 76°
2026-05-08 16:45 -16.46047 -39.16223 1666 ft 152 kts 75°
2026-05-08 16:45 -16.45765 -39.15181 1463 ft 147 kts 75°
2026-05-08 16:45 -16.45483 -39.14135 1256 ft 150 kts 76°
2026-05-08 16:45 -16.45206 -39.13110 1071 ft 144 kts 75°
2026-05-08 16:46 -16.44935 -39.12106 885 ft 147 kts 75°
2026-05-08 16:46 -16.44650 -39.11064 684 ft 151 kts 75°
2026-05-08 16:46 -16.44371 -39.10026 391 ft 146 kts 75°
2026-05-08 16:46 -16.44104 -39.09036 194 ft 136 kts 78°
2026-05-08 16:47 -16.43885 -39.08210 158 ft 77 kts 73°
2026-05-08 16:47 -16.43810 -39.07930 159 ft 30 kts 75°
2026-05-08 16:47 -16.43754 -39.07730 161 ft 28 kts 74°
2026-05-08 16:47 -16.43706 -39.07542 161 ft 24 kts 74°
2026-05-08 16:48 -16.43661 -39.07381 162 ft 22 kts 75°
2026-05-08 16:48 -16.43651 -39.07246 160 ft 16 kts 99°
2026-05-08 16:48 -16.43622 -39.07233 159 ft 8 kts 252°
2026-05-08 16:48 -16.43638 -39.07288 160 ft 8 kts 254°
2026-05-08 16:49 -16.43653 -39.07344 161 ft 8 kts 254°
2026-05-08 16:49 -16.43668 -39.07399 162 ft 8 kts 254°
2026-05-08 16:49 -16.43683 -39.07452 162 ft 7 kts 254°
2026-05-08 16:49 -16.43696 -39.07502 162 ft 7 kts 254°
2026-05-08 16:50 -16.43709 -39.07551 161 ft 7 kts 255°
2026-05-08 16:50 -16.43721 -39.07599 161 ft 7 kts 255°
2026-05-08 16:50 -16.43733 -39.07646 161 ft 7 kts 255°
2026-05-08 16:50 -16.43748 -39.07700 161 ft 8 kts 254°
2026-05-08 16:51 -16.43763 -39.07756 161 ft 8 kts 254°
2026-05-08 16:51 -16.43778 -39.07811 160 ft 8 kts 254°
2026-05-08 16:51 -16.43791 -39.07862 160 ft 7 kts 254°
2026-05-08 16:51 -16.43805 -39.07912 159 ft 7 kts 255°
2026-05-08 16:52 -16.43817 -39.07960 158 ft 7 kts 255°
2026-05-08 16:52 -16.43829 -39.08007 158 ft 7 kts 255°
2026-05-08 16:52 -16.43841 -39.08053 158 ft 7 kts 255°
2026-05-08 16:52 -16.43853 -39.08098 158 ft 6 kts 252°
2026-05-08 16:53 -16.43919 -39.08135 159 ft 6 kts 165°
2026-05-08 16:53 -16.43960 -39.08123 159 ft 6 kts 165°
2026-05-08 16:53 -16.44000 -39.08112 159 ft 6 kts 165°
2026-05-08 16:54 -16.44038 -39.08101 159 ft 5 kts 163°
2026-05-08 16:54 -16.44054 -39.08097 159 ft 1 kts 165°
2026-05-08 16:54 -16.44061 -39.08095 159 ft 0 kts 165°